Starlink 31485

operational
NORAD ID: 59308 Int'l Des: 2024-056 Owner: SPXS Country: US Constellation: starlink
LEOCIRCULAR

关于 Starlink 31485

正在加载描述...

实时位置

正在加载3D地球...

即将过境

高度历史

Altitude vs Time

uPlot chart will show altitude changes over time

两行轨道根数

1 59308U 24056N 25259.05804158 .00005455 00000-0 20749-3 0 9990
2 59308 43.0032 137.1933 0001259 261.7768 98.2941 15.27597247 84442
Epoch: Sep 16, 2025 • Age: 18 hours

当前状态

高度 495.1 km
速度 7.62 km/s
星下点 -42.35°S, 96.47°E
发射日期 Mar 24, 2024
运行时间 1.4 years
类型 internet

技术详情

分类 Payload
质量 730.00 kg
干质量 700.00 kg
总质量 730.00 kg
长度 0.30 m
直径 4.10 m
跨度 29.00 m
形状 Box + pan
制造商 SPXS
平台类型 Starlink V2M
阶段状态 In Orbit
所有者/国家 SPXS/US

大型星座

Loading constellations...